Regional Weather Roundup
Issued by NWS Midland/Odessa, TX

Skip options and go directly to product.
Home | Oldest Version | Next Version | Current Version | All | Text Only | Save Text | Print | Product List | Glossary On

Skip product version selection by date and time.   
858
ASUS44 KMAF 221401
RWRMAF
MIDLAND AREA WEATHER ROUNDUP
NATIONAL WEATHER SERVICE MIDLAND TX
900 AM CDT FRI MAY 22 2015

...IN SOUTHWEST TEXAS AND SOUTHEAST NEW MEXICO...

CITY           SKY/WX    TMP DP  RH WIND       PRES   REMARKS
ALPINE         CLOUDY    58  57  97 CALM      30.19S
ANDREWS        CLOUDY    56  56 100 E5        30.11F FOG
ARTESIA        CLOUDY    55  55 100 SE6       30.12F
BIG SPRING     CLOUDY    60  58  93 E3        30.12S
CARLSBAD       CLOUDY    57  53  86 E3        30.10F
DRYDEN           N/A     67  66  97 VRB7      30.05R
FORT STOCKTON  FOG       58  58 100 W5        30.10S VSB 1
GUAD PASS      FOG       49  49 100 NE8       30.16S VSB 1/4
HOBBS          CLOUDY    54  54 100 CALM      30.13S
MARFA          CLOUDY   N/A N/A N/A SE7       30.16R
MIDLAND AIRPK  LGT RAIN  60  60 100 NE3       30.11R
MIDLAND INTL   LGT RAIN  60  58  92 N3        30.10S FOG
ODESSA         LGT RAIN  59  57  93 NE6       30.11S FOG
PECOS          FOG       56  55  96 NW5       30.10S VSB 1/2
PRESIDIO       FAIR      69  59  70 CALM      30.05S
SEMINOLE       CLOUDY    56  56  98 SE7       30.12S FOG
SNYDER         DRIZZLE   57  57  98 SE6       30.12S
WINK           CLOUDY    60  57  89 NE3       30.08S
$$
...OTHER STATIONS IN TEXAS...

CITY           SKY/WX    TMP DP  RH WIND       PRES   REMARKS
ABILENE        CLOUDY    60  58  92 S6        30.12S
AMARILLO       CLOUDY    51  50  96 SE9       30.15S FOG
AUSTIN         CLOUDY    65  65 100 NE3       30.10S FOG
BROWNSVILLE    MOSUNNY   77  74  90 SE7       30.01F
CORPUS CHRISTI PTSUNNY   80  76  87 E7        30.04R
DALLAS FTW     CLOUDY    59  58  96 E12       30.16R
DEL RIO        CLOUDY    69  67  93 SE10      30.03R FOG
EL PASO        CLOUDY    60  53  77 NE3       30.08R
HOUSTON INT    CLOUDY    65  63  93 NE13      30.14R FOG
LUBBOCK        CLOUDY    54  52  93 E10       30.13R
SAN ANGELO     CLOUDY    63  60  90 E7        30.10R
SAN ANTONIO    DRZL/FOG  67  65  93 E6        30.11R VSB 1/2
WACO           CLOUDY    62  60  93 E7        30.15R
WICHITA FALLS  NOT AVBL
$$
...OTHER LOCATIONS IN NEW MEXICO...

CITY           SKY/WX    TMP DP  RH WIND       PRES   REMARKS
ALAMAGORDO     SUNNY     55  50  82 N8        30.11R
ALBUQUERQUE    PTSUNNY   53  44  71 CALM      30.12S
CANNON AFB     CLOUDY    50  50 100 VRB2      30.14R FOG
CLOVIS         CLOUDY    50  48  93 S5        30.15R
HOLLOMAN AFB   PTSUNNY   55  52  91 N8        30.09R
ROSWELL        CLOUDY    54  51  90 CALM      30.12R
RUIDOSO        FOG       41  41 100 CALM      30.19R VSB<1/4
SANTA FE       PTSUNNY   46  41  82 S12       30.14R
TRUTH OR CONSE SUNNY     54  49  83 NE6       30.08S
TUCUMCARI      NOT AVBL
$$

USA.gov is the U.S. government's official web portal to all federal, state and local government web resources and services.